DW6345 Murcia ES current weather conditions

sailwx.info

Wind from 036 at 1 knots gusting 6

Air temperature 18.3° C
Dewpoint 11.6° C

Last reported at 2017-Feb-23 12:54 UTC.
Time now 2017-Feb-23 13:52 UTC

Location: N 37°60' W 001°06'.
View on Google Maps.

See reports from other nearby stations

  
Tides and Currents Weather Stations Pressure Air Temp Water Temp Dewpoint Dewpoint Depression Visibility Wind Speed Wind Dir Waves Ship Positions
date/time (UTC)wind fromknots sea level pressurealtimeterstation pressurevisibilityair tempwater tempwave heightnotes
2017-Feb-23 12:54 036 1 gusting 6 18.3
2017-Feb-23 12:49 343 3 gusting 4 18.3
2017-Feb-23 12:44 019 4 gusting 5 17.8
2017-Feb-23 12:39 036 2 gusting 6 17.8
2017-Feb-23 12:34 024 2 gusting 6 17.8
2017-Feb-23 12:29 051 2 gusting 5 17.2
2017-Feb-23 12:24 053 2 gusting 8 17.2
2017-Feb-23 12:19 010 2 gusting 8 17.2
2017-Feb-23 12:14 035 1 gusting 5 17.2
2017-Feb-23 12:09 092 1 gusting 4 17.2
2017-Feb-23 12:04 302 1 gusting 6 17.2
2017-Feb-23 11:59 334 2 gusting 4 16.7
2017-Feb-23 11:54 293 2 gusting 4 16.7
2017-Feb-23 11:49 267 2 gusting 4 16.7
2017-Feb-23 11:44 259 1 gusting 5 16.7
2017-Feb-23 11:39 207 1 gusting 5 16.7
2017-Feb-23 11:34 244 1 gusting 5 16.1
2017-Feb-23 11:29 252 1 gusting 4 16.1
2017-Feb-23 11:24 223 1 gusting 5 16.1
2017-Feb-23 11:19 185 3 gusting 4 15.6
2017-Feb-23 11:14 145 4 gusting 5 15.6
2017-Feb-23 11:09 153 2 gusting 6 15.6
2017-Feb-23 11:04 165 2 gusting 6 15.6
2017-Feb-23 10:59 207 2 gusting 5 15.0
2017-Feb-23 10:54 201 1 gusting 6 15.0
2017-Feb-23 10:49 156 1 gusting 4 15.0
2017-Feb-23 10:44 239 1 gusting 4 15.0
2017-Feb-23 10:39 330 1 gusting 2 14.4
2017-Feb-23 10:34 263 1 gusting 4 14.4
2017-Feb-23 10:29 255 3 gusting 4 14.4
2017-Feb-23 10:24 248 4 gusting 4 13.9
2017-Feb-23 10:19 234 2 gusting 6 13.9
2017-Feb-23 10:14 222 2 gusting 5 13.9
2017-Feb-23 10:09 235 2 gusting 5 13.3
2017-Feb-23 10:04 244 2 gusting 5 13.3
2017-Feb-23 09:59 219 2 gusting 4 13.3
2017-Feb-23 09:54 174 2 gusting 5 13.3
2017-Feb-23 09:49 164 2 gusting 4 13.3
2017-Feb-23 09:44 201 1 gusting 4 13.3
2017-Feb-23 09:39 181 1 gusting 4 12.8
2017-Feb-23 09:34 188 1 gusting 4 12.8
2017-Feb-23 09:29 219 3 gusting 4 12.8
2017-Feb-23 09:24 206 4 gusting 4 12.8
2017-Feb-23 09:19 225 4 gusting 5 12.8
2017-Feb-23 09:14 242 4 gusting 6 12.8
2017-Feb-23 09:09 251 4 gusting 6 12.8
2017-Feb-23 09:04 252 4 gusting 6 12.2
2017-Feb-23 08:59 255 2 gusting 5 12.2
2017-Feb-23 08:54 270 2 gusting 6 12.2
2017-Feb-23 08:49 254 1 gusting 6 12.2
2017-Feb-23 08:44 249 1 gusting 5 12.8
2017-Feb-23 08:39 273 2 gusting 4 12.8
2017-Feb-23 08:34 228 2 gusting 2 12.2
2017-Feb-23 08:29 211 3 gusting 5 12.2
2017-Feb-23 08:24 220 4 gusting 5 12.2
2017-Feb-23 08:19 230 4 gusting 6 12.2
2017-Feb-23 08:14 235 4 gusting 6 12.2
2017-Feb-23 08:09 173 4 gusting 6 12.2
2017-Feb-23 08:04 164 4 gusting 6 12.2
2017-Feb-23 07:59 147 3 gusting 6 12.2
2017-Feb-23 07:54 184 2 gusting 6 12.2
2017-Feb-23 07:49 183 3 gusting 6 11.7
2017-Feb-23 07:44 180 4 gusting 4 11.7
2017-Feb-23 07:39 163 2 gusting 5 11.7
2017-Feb-23 07:34 140 2 gusting 6 11.7
2017-Feb-23 07:29 135 1 gusting 6 11.7
2017-Feb-23 07:24 056 1 gusting 4 11.7
2017-Feb-23 07:19 010 1 gusting 4 11.7
2017-Feb-23 07:14 344 1 gusting 5 11.7
2017-Feb-23 07:09 222 1 gusting 4 11.7
2017-Feb-23 07:04 167 1 gusting 2 11.7
2017-Feb-23 06:59 076 1 gusting 4 11.7
2017-Feb-23 06:54 271 1 gusting 4 12.2
2017-Feb-23 06:49 327 1 gusting 5 12.2
2017-Feb-23 06:44 297 1 gusting 4 12.2
2017-Feb-23 06:39 124 2 gusting 2 12.8
2017-Feb-23 06:34 072 2 gusting 1 12.8
2017-Feb-23 06:29 073 2 gusting 4 12.8
2017-Feb-23 06:24 113 2 gusting 4 12.8
2017-Feb-23 06:19 223 3 gusting 4 12.8
2017-Feb-23 06:14 229 4 gusting 6 12.8
2017-Feb-23 06:09 205 4 gusting 5 12.8
2017-Feb-23 06:04 208 4 gusting 5 12.2
2017-Feb-23 05:59 230 2 gusting 6 12.2
2017-Feb-23 05:54 195 1 gusting 5 12.2
2017-Feb-23 05:49 200 1 gusting 4 12.2
2017-Feb-23 05:44 224 1 gusting 4 12.2
2017-Feb-23 05:39 257 1 gusting 2 12.2
2017-Feb-23 05:34 236 1 gusting 2 12.2
2017-Feb-23 05:29 260 2 gusting 2 12.2
2017-Feb-23 05:24 253 2 gusting 5 12.2
2017-Feb-23 05:19 173 2 gusting 5 12.2
2017-Feb-23 05:14 174 2 gusting 5 12.2
2017-Feb-23 05:09 185 4 gusting 5 12.8
2017-Feb-23 05:04 115 5 gusting 5 12.8
2017-Feb-23 04:59 226 3 gusting 6 12.2
2017-Feb-23 04:54 247 2 gusting 7 12.2
2017-Feb-23 04:49 271 3 gusting 5 12.2
2017-Feb-23 04:44 184 4 gusting 6 12.2
2017-Feb-23 04:39 195 5 gusting 6 12.2
2017-Feb-23 04:34 175 5 gusting 7 12.2
2017-Feb-23 04:29 159 3 gusting 10 12.2
2017-Feb-23 04:24 203 2 gusting 10 12.2
2017-Feb-23 04:19 241 3 gusting 5 12.2
2017-Feb-23 04:14 304 4 gusting 6 12.2
2017-Feb-23 04:09 265 2 gusting 7 12.2
2017-Feb-23 04:04 229 1 gusting 6 12.2
2017-Feb-23 03:59 254 3 gusting 4 12.2
2017-Feb-23 03:54 129 4 gusting 4 12.2
2017-Feb-23 03:49 193 5 gusting 5 12.2
2017-Feb-23 03:44 174 6 gusting 6 12.2
2017-Feb-23 03:39 157 4 gusting 12 12.2
2017-Feb-23 03:34 183 4 gusting 11 12.2
2017-Feb-23 03:29 064 2 gusting 6 12.2
2017-Feb-23 03:24 283 1 gusting 6 12.2
2017-Feb-23 03:19 098 2 gusting 2 12.2
2017-Feb-23 03:14 359 4 gusting 4 12.2
2017-Feb-23 03:09 339 4 gusting 5 12.2
2017-Feb-23 03:04 264 4 gusting 7 11.7
2017-Feb-23 02:59 209 2 gusting 11 11.7
2017-Feb-23 02:54 177 1 gusting 5 11.7
2017-Feb-23 02:49 029 2 gusting 5 12.2
2017-Feb-23 02:44 008 2 gusting 2 12.2
2017-Feb-23 02:39 001 3 gusting 4 12.2
2017-Feb-23 02:34 033 4 gusting 5 12.2
2017-Feb-23 02:29 035 2 gusting 5 12.2
2017-Feb-23 02:24 047 1 gusting 5 12.2
2017-Feb-23 02:19 053 2 gusting 2 12.8
2017-Feb-23 02:14 041 2 gusting 5 12.8
2017-Feb-23 02:09 045 2 gusting 6 12.8
2017-Feb-23 02:04 033 2 gusting 5 12.8
2017-Feb-23 01:59 170 3 gusting 4 12.8
2017-Feb-23 01:54 162 4 gusting 5 13.3
2017-Feb-23 01:49 145 2 gusting 6 13.3
2017-Feb-23 01:44 166 2 gusting 5 13.3
2017-Feb-23 01:39 262 3 gusting 4 13.3
2017-Feb-23 01:34 235 4 gusting 6 13.3
2017-Feb-23 01:29 229 4 gusting 6 13.3
2017-Feb-23 01:24 229 4 gusting 6 13.3
2017-Feb-23 01:19 208 2 gusting 7 13.3
2017-Feb-23 01:14 272 2 gusting 5 13.3
2017-Feb-23 01:09 250 2 gusting 4 13.3
2017-Feb-23 01:04 264 2 gusting 6 13.3
2017-Feb-23 00:59 294 2 gusting 5 13.3
2017-Feb-23 00:54 273 2 gusting 4 13.3
2017-Feb-23 00:49 210 4 gusting 4 12.8
2017-Feb-23 00:44 157 5 gusting 6 12.8
2017-Feb-23 00:39 125 4 gusting 11 13.3
2017-Feb-23 00:34 141 4 gusting 5 13.3
2017-Feb-23 00:29 185 2 gusting 5 12.8
2017-Feb-23 00:24 161 1 gusting 6 12.8
2017-Feb-23 00:19 132 1 gusting 5 13.3
2017-Feb-23 00:14 123 1 gusting 4 13.3
2017-Feb-23 00:09 065 1 gusting 5 13.3
2017-Feb-23 00:04 165 1 gusting 2 13.3
2017-Feb-22 23:59 278 1 gusting 2 13.3
2017-Feb-22 23:54 294 1 gusting 4 13.3
2017-Feb-22 23:49 301 1 gusting 4 13.3
2017-Feb-22 23:44 317 1 gusting 4 13.9
2017-Feb-22 23:39 253 1 gusting 2 13.9
2017-Feb-22 23:34 252 1 gusting 2 13.9
2017-Feb-22 23:29 267 1 gusting 4 13.9
2017-Feb-22 23:24 025 1 gusting 2 13.9
2017-Feb-22 23:19 270 1 gusting 2 13.9
2017-Feb-22 23:14 269 1 gusting 2 13.9
2017-Feb-22 23:09 230 2 gusting 1 13.9
2017-Feb-22 23:04 228 2 gusting 2 13.9
2017-Feb-22 22:59 213 2 gusting 5 13.9
2017-Feb-22 22:54 252 1 gusting 4 13.9
2017-Feb-22 22:49 288 3 gusting 4 13.9
2017-Feb-22 22:44 283 4 gusting 4 13.9
2017-Feb-22 22:39 197 4 gusting 5 13.9
2017-Feb-22 22:34 150 5 gusting 6 13.9
2017-Feb-22 22:29 192 4 gusting 10 13.9
2017-Feb-22 22:24 199 4 gusting 6 14.4
2017-Feb-22 22:19 228 4 gusting 6 13.9
2017-Feb-22 22:14 194 4 gusting 5 13.9
2017-Feb-22 22:09 190 2 gusting 5 14.4
2017-Feb-22 22:04 149 2 gusting 6 14.4
2017-Feb-22 21:59 157 2 gusting 5 14.4
2017-Feb-22 21:54 210 1 gusting 4 14.4
2017-Feb-22 21:49 156 1 gusting 5 14.4
2017-Feb-22 21:44 191 1 gusting 2 14.4
2017-Feb-22 21:39 317 1 gusting 2 14.4
2017-Feb-22 21:34 208 1 gusting 2 14.4
2017-Feb-22 21:29 208 1 gusting 4 14.4
2017-Feb-22 21:24 206 1 gusting 1 14.4
2017-Feb-22 21:19 206 1 gusting 1 14.4
2017-Feb-22 21:14 235 1 gusting 2 14.4
2017-Feb-22 21:09 234 2 gusting 2 14.4
2017-Feb-22 21:04 233 2 gusting 4 14.4
2017-Feb-22 20:59 228 1 gusting 4 14.4
2017-Feb-22 20:54 227 1 gusting 4 14.4
2017-Feb-22 20:49 213 1 gusting 4 14.4
2017-Feb-22 20:44 272 1 gusting 2 14.4
2017-Feb-22 20:39 291 1 gusting 2 14.4
2017-Feb-22 20:34 278 1 gusting 1 14.4
2017-Feb-22 20:29 272 1 gusting 1 14.4
2017-Feb-22 20:24 294 1 gusting 5 14.4
2017-Feb-22 20:19 308 1 gusting 5 14.4
2017-Feb-22 20:14 330 1 gusting 4 14.4
2017-Feb-22 20:09 292 1 gusting 2 14.4
2017-Feb-22 20:04 263 1 gusting 2 14.4
2017-Feb-22 19:59 261 1 gusting 4 14.4
2017-Feb-22 19:54 235 1 gusting 4 15.0
2017-Feb-22 19:49 206 1 gusting 4 15.0
2017-Feb-22 19:44 300 1 gusting 2 15.0
2017-Feb-22 19:39 301 1 gusting 2 15.0
2017-Feb-22 19:34 017 1 gusting 5 15.0
2017-Feb-22 19:29 045 2 gusting 6 15.0
2017-Feb-22 19:24 030 2 gusting 4 15.0
2017-Feb-22 19:19 081 3 gusting 4 15.0
2017-Feb-22 19:14 051 4 gusting 5 15.0
2017-Feb-22 19:09 048 4 gusting 6 15.0
2017-Feb-22 19:04 045 4 gusting 5 15.0
2017-Feb-22 18:59 033 4 gusting 6 15.0
2017-Feb-22 18:54 036 4 gusting 6 15.0
2017-Feb-22 18:49 004 2 gusting 6 15.0
2017-Feb-22 18:44 038 1 gusting 6 15.0
2017-Feb-22 18:39 352 2 gusting 4 15.0
2017-Feb-22 18:34 331 2 gusting 2 15.0
2017-Feb-22 18:29 329 3 gusting 4 15.0
2017-Feb-22 18:24 034 4 gusting 5 15.0
2017-Feb-22 18:19 033 4 gusting 5 15.0
2017-Feb-22 18:14 028 4 gusting 6 15.6
2017-Feb-22 18:09 029 4 gusting 6 15.6
2017-Feb-22 18:04 038 4 gusting 6 15.6
2017-Feb-22 17:59 025 4 gusting 6 15.6
2017-Feb-22 17:54 038 5 gusting 6 15.6
2017-Feb-22 17:49 036 5 gusting 7 15.6
2017-Feb-22 17:44 036 5 gusting 8 15.6
2017-Feb-22 17:39 038 6 gusting 8 16.1
2017-Feb-22 17:34 036 6 gusting 11 16.1
2017-Feb-22 17:29 046 7 gusting 12 16.1
2017-Feb-22 17:24 025 7 gusting 12 16.1
2017-Feb-22 17:19 042 7 gusting 13 16.1
2017-Feb-22 17:14 027 7 gusting 13 16.1
2017-Feb-22 17:09 027 7 gusting 13 16.1
2017-Feb-22 17:04 048 7 gusting 14 16.7
2017-Feb-22 16:59 027 7 gusting 15 16.7
2017-Feb-22 16:54 040 7 gusting 13 16.7
2017-Feb-22 16:49 030 7 gusting 13 16.7
2017-Feb-22 16:44 028 6 gusting 12 16.7
2017-Feb-22 16:39 045 7 gusting 13 16.7
2017-Feb-22 16:34 032 7 gusting 11 16.7
2017-Feb-22 16:29 033 6 gusting 13 16.7
2017-Feb-22 16:24 044 6 gusting 13 17.2
2017-Feb-22 16:19 044 6 gusting 10 17.2
2017-Feb-22 16:14 039 6 gusting 13 17.2
2017-Feb-22 16:09 050 6 gusting 13 17.2
2017-Feb-22 16:04 035 5 gusting 12 17.2
2017-Feb-22 15:59 044 7 gusting 10 17.2
2017-Feb-22 15:54 077 8 gusting 12 17.2
2017-Feb-22 15:49 039 8 gusting 17 17.2
2017-Feb-22 15:44 031 8 gusting 13 17.2
2017-Feb-22 15:39 041 8 gusting 13 17.2
2017-Feb-22 15:34 039 7 gusting 17 17.2
2017-Feb-22 15:29 041 8 gusting 15 17.2
2017-Feb-22 15:19 045 8 gusting 14 17.8
2017-Feb-22 15:09 032 8 gusting 20 17.8
2017-Feb-22 15:04 037 8 gusting 13 17.8
2017-Feb-22 14:59 046 9 gusting 17 17.8
2017-Feb-22 14:54 052 10 gusting 17 17.8
2017-Feb-22 14:49 035 9 gusting 15 17.8
2017-Feb-22 14:44 037 8 gusting 18 17.8
2017-Feb-22 14:39 041 8 gusting 13 17.8
2017-Feb-22 14:34 034 8 gusting 13 17.8
2017-Feb-22 14:29 036 8 gusting 15 17.8
2017-Feb-22 14:24 034 7 gusting 13 17.8
2017-Feb-22 14:19 041 7 gusting 12 17.8
2017-Feb-22 14:14 051 7 gusting 13 17.8
2017-Feb-22 14:09 054 8 gusting 11 17.8
2017-Feb-22 14:04 034 8 gusting 13 17.8
2017-Feb-22 13:59 040 7 gusting 15 17.8
2017-Feb-22 13:54 038 6 gusting 15 17.8
2017-Feb-22 13:49 034 6 gusting 12 17.8
2017-Feb-22 13:44 038 6 gusting 12 17.8
2017-Feb-22 13:39 024 7 gusting 12 17.8
2017-Feb-22 13:34 040 8 gusting 13 17.8
2017-Feb-22 13:29 041 8 gusting 13 17.8
2017-Feb-22 13:24 020 8 gusting 13 17.8
2017-Feb-22 13:19 023 8 gusting 14 17.8
2017-Feb-22 13:14 025 8 gusting 14 17.8
2017-Feb-22 13:09 040 8 gusting 13 17.8
2017-Feb-22 13:04 011 8 gusting 14 17.8
2017-Feb-22 12:59 028 6 gusting 14 17.8
2017-Feb-22 12:54 036 5 gusting 13 17.8
2017-Feb-22 12:49 032 4 gusting 12 17.2
2017-Feb-22 12:44 051 2 gusting 7 17.2
2017-Feb-22 12:39 038 2 gusting 6 17.2
2017-Feb-22 12:34 001 2 gusting 6 16.7
2017-Feb-22 12:29 322 2 gusting 6 16.7
2017-Feb-22 12:24 300 2 gusting 7 16.7
2017-Feb-22 12:19 036 2 gusting 6 16.7
2017-Feb-22 12:14 013 2 gusting 5 16.7
2017-Feb-22 12:09 063 2 gusting 5 16.1
2017-Feb-22 12:04 329 1 gusting 5 16.7
2017-Feb-22 11:59 338 1 gusting 4 16.1
2017-Feb-22 11:54 351 1 gusting 5 16.1
2017-Feb-22 11:49 142 2 gusting 4 16.1
2017-Feb-22 11:44 137 4 gusting 2 16.1
2017-Feb-22 11:39 162 2 gusting 6 15.6
2017-Feb-22 11:34 147 1 gusting 6 15.6
2017-Feb-22 11:29 151 1 gusting 4 15.6
2017-Feb-22 11:24 104 1 gusting 5 15.6
2017-Feb-22 11:19 146 2 gusting 5 15.0
2017-Feb-22 11:14 242 4 gusting 4 14.4
2017-Feb-22 11:09 248 4 gusting 4 14.4
2017-Feb-22 11:04 179 5 gusting 6 14.4
2017-Feb-22 10:59 205 4 gusting 6 13.9
2017-Feb-22 10:54 206 4 gusting 7 13.9
2017-Feb-22 10:49 174 4 gusting 6 13.9
2017-Feb-22 10:44 174 4 gusting 6 13.9
2017-Feb-22 10:39 193 4 gusting 6 13.3
2017-Feb-22 10:34 227 4 gusting 6 13.3
2017-Feb-22 10:29 194 4 gusting 6 13.3
2017-Feb-22 10:24 201 4 gusting 6 12.8
2017-Feb-22 10:19 180 5 gusting 6 12.8
2017-Feb-22 10:14 203 6 gusting 6 12.8
2017-Feb-22 10:09 190 6 gusting 8 12.2
2017-Feb-22 10:04 195 6 gusting 10 12.2
2017-Feb-22 09:59 170 6 gusting 10 12.2
2017-Feb-22 09:54 183 6 gusting 8 12.2
2017-Feb-22 09:49 194 4 gusting 8 12.2
2017-Feb-22 09:44 181 4 gusting 11 12.2
2017-Feb-22 09:39 176 5 gusting 7 11.7
2017-Feb-22 09:34 215 5 gusting 6 11.7
2017-Feb-22 09:29 200 5 gusting 7 11.7
2017-Feb-22 09:24 199 5 gusting 8 11.7
2017-Feb-22 09:19 197 4 gusting 6 11.7
2017-Feb-22 09:14 189 4 gusting 8 11.7
2017-Feb-22 09:09 199 5 gusting 8 11.7
2017-Feb-22 09:04 222 5 gusting 6 11.7
2017-Feb-22 08:59 220 4 gusting 7 11.7
2017-Feb-22 08:54 211 4 gusting 6 11.7
2017-Feb-22 08:49 201 4 gusting 6 11.7
2017-Feb-22 08:44 200 4 gusting 10 11.7
2017-Feb-22 08:39 220 4 gusting 6 11.7
2017-Feb-22 08:34 215 4 gusting 7 11.1
2017-Feb-22 08:29 219 4 gusting 7 11.1
2017-Feb-22 08:24 199 4 gusting 6 11.1
2017-Feb-22 08:19 225 4 gusting 6 11.1
2017-Feb-22 08:14 210 4 gusting 6 10.6
2017-Feb-22 08:09 204 5 gusting 6 10.6
2017-Feb-22 08:04 201 5 gusting 7 10.6
2017-Feb-22 07:59 219 5 gusting 7 10.6
2017-Feb-22 07:54 230 5 gusting 6 10.6
2017-Feb-22 07:49 234 5 gusting 8 10.6
2017-Feb-22 07:44 228 5 gusting 7 10.0
2017-Feb-22 07:39 215 5 gusting 7 10.0
2017-Feb-22 07:34 215 5 gusting 8 10.0
2017-Feb-22 07:29 206 5 gusting 8 10.0
2017-Feb-22 07:24 194 5 gusting 6 10.0
2017-Feb-22 07:19 181 5 gusting 6 10.0
2017-Feb-22 07:14 205 5 gusting 7 10.0
2017-Feb-22 07:09 211 5 gusting 6 10.0
2017-Feb-22 07:04 218 5 gusting 7 10.0
2017-Feb-22 06:59 205 4 gusting 7 10.0
2017-Feb-22 06:54 213 4 gusting 7 10.0
2017-Feb-22 06:49 215 4 gusting 5 10.0
2017-Feb-22 06:44 209 5 gusting 7 10.0
2017-Feb-22 06:39 210 5 gusting 7 10.0
2017-Feb-22 06:34 204 6 gusting 7 10.0
2017-Feb-22 06:29 195 5 gusting 7 10.0
2017-Feb-22 06:24 208 5 gusting 10 10.0
2017-Feb-22 06:19 189 5 gusting 8 10.0
2017-Feb-22 06:14 193 5 gusting 8 10.0
2017-Feb-22 06:09 206 5 gusting 7 10.0
2017-Feb-22 06:04 214 6 gusting 7 9.4
2017-Feb-22 05:59 197 5 gusting 8 9.4
2017-Feb-22 05:54 198 5 gusting 7 9.4
2017-Feb-22 05:49 208 5 gusting 7 9.4
2017-Feb-22 05:44 210 5 gusting 7 9.4
2017-Feb-22 05:39 213 6 gusting 6 9.4
2017-Feb-22 05:34 193 6 gusting 10 9.4
2017-Feb-22 05:29 196 6 gusting 10 9.4
2017-Feb-22 05:24 196 6 gusting 10 9.4
2017-Feb-22 05:19 200 6 gusting 8 9.4
2017-Feb-22 05:14 192 6 gusting 10 9.4
2017-Feb-22 05:09 188 6 gusting 8 10.0
2017-Feb-22 05:04 192 6 gusting 8 10.0
2017-Feb-22 04:59 184 6 gusting 8 10.0
2017-Feb-22 04:54 190 6 gusting 8 10.0
2017-Feb-22 04:49 194 5 gusting 8 10.0
2017-Feb-22 04:44 202 5 gusting 8 10.0
2017-Feb-22 04:39 197 4 gusting 8 10.0
2017-Feb-22 04:34 189 4 gusting 7 10.0
2017-Feb-22 04:29 197 4 gusting 6 10.0
2017-Feb-22 04:24 198 5 gusting 6 10.0
2017-Feb-22 04:19 203 5 gusting 6 10.0
2017-Feb-22 04:14 201 5 gusting 6 10.6
2017-Feb-22 04:09 180 4 gusting 7 10.6
2017-Feb-22 04:04 205 4 gusting 6 10.6
2017-Feb-22 03:59 190 4 gusting 6 10.6
2017-Feb-22 03:54 195 4 gusting 6 10.6
2017-Feb-22 03:49 196 5 gusting 6 10.6
2017-Feb-22 03:44 218 5 gusting 6 10.6
2017-Feb-22 03:39 210 5 gusting 6 10.6
2017-Feb-22 03:34 211 5 gusting 7 10.6
2017-Feb-22 03:29 206 4 gusting 7 10.6
2017-Feb-22 03:24 201 4 gusting 6 10.6
2017-Feb-22 03:19 179 4 gusting 6 10.0
2017-Feb-22 03:14 197 4 gusting 6 10.0
2017-Feb-22 03:09 211 4 gusting 6 10.0
2017-Feb-22 03:04 214 5 gusting 6 10.0
2017-Feb-22 02:59 196 5 gusting 7 10.6
2017-Feb-22 02:54 198 5 gusting 7 10.6
2017-Feb-22 02:49 192 5 gusting 6 10.6
2017-Feb-22 02:44 190 6 gusting 7 10.6
2017-Feb-22 02:39 183 5 gusting 8 10.6
2017-Feb-22 02:34 187 5 gusting 7 10.6
2017-Feb-22 02:29 183 4 gusting 7 10.6
2017-Feb-22 02:24 183 4 gusting 7 10.6
2017-Feb-22 02:19 193 4 gusting 6 10.6
2017-Feb-22 02:14 222 5 gusting 6 10.6
2017-Feb-22 02:09 196 5 gusting 6 10.0
2017-Feb-22 02:04 180 5 gusting 8 10.0
2017-Feb-22 01:59 188 5 gusting 8 10.0
2017-Feb-22 01:54 187 5 gusting 8 10.0
2017-Feb-22 01:49 184 5 gusting 7 10.0
2017-Feb-22 01:44 178 5 gusting 7 10.0
2017-Feb-22 01:39 169 4 gusting 8 10.0
2017-Feb-22 01:34 175 4 gusting 7 10.0
2017-Feb-22 01:29 175 5 gusting 6 10.6
2017-Feb-22 01:24 182 5 gusting 6 10.6
2017-Feb-22 01:19 199 4 gusting 6 10.6
2017-Feb-22 01:14 186 4 gusting 6 10.6
2017-Feb-22 01:09 185 4 gusting 6 10.6
2017-Feb-22 01:04 182 4 gusting 6 10.6
2017-Feb-22 00:59 207 5 gusting 6 10.6
2017-Feb-22 00:54 204 5 gusting 6 10.6
2017-Feb-22 00:49 204 4 gusting 7 10.6
2017-Feb-22 00:44 203 4 gusting 7 10.6
2017-Feb-22 00:39 202 4 gusting 7 10.6
2017-Feb-22 00:34 185 4 gusting 7 10.6
2017-Feb-22 00:29 187 4 gusting 6 10.6
2017-Feb-22 00:24 183 4 gusting 5 10.6
2017-Feb-22 00:19 206 4 gusting 6 10.6
2017-Feb-22 00:14 204 4 gusting 5 10.6
2017-Feb-22 00:09 217 4 gusting 6 10.6
2017-Feb-22 00:04 187 4 gusting 5 10.6
2017-Feb-21 23:59 205 4 gusting 6 10.6
2017-Feb-21 23:54 218 4 gusting 6 10.6
2017-Feb-21 23:49 190 4 gusting 6 10.6
2017-Feb-21 23:44 180 4 gusting 6 10.6
2017-Feb-21 23:39 172 4 gusting 6 10.6
2017-Feb-21 23:34 179 4 gusting 6 10.6
2017-Feb-21 23:29 163 4 gusting 6 11.1
2017-Feb-21 23:24 163 4 gusting 6 11.1
2017-Feb-21 23:19 191 2 gusting 6 11.1
2017-Feb-21 23:14 190 2 gusting 4 11.1
2017-Feb-21 23:09 175 2 gusting 4 11.1
2017-Feb-21 23:04 192 1 gusting 4 11.1
2017-Feb-21 22:59 180 1 gusting 4 11.1
2017-Feb-21 22:54 175 1 gusting 4 11.1
2017-Feb-21 22:49 207 3 gusting 4 11.1
2017-Feb-21 22:44 221 4 gusting 4 11.1
2017-Feb-21 22:39 220 4 gusting 4 11.7
2017-Feb-21 22:34 205 4 gusting 6 11.7
2017-Feb-21 22:29 186 2 gusting 6 11.7
2017-Feb-21 22:24 176 2 gusting 4 11.7
2017-Feb-21 22:19 202 2 gusting 5 11.7
2017-Feb-21 22:14 168 1 gusting 5 11.7
2017-Feb-21 22:09 173 1 gusting 4 12.2
2017-Feb-21 22:04 192 1 gusting 4 12.2
2017-Feb-21 21:59 211 1 gusting 4 12.2
2017-Feb-21 21:54 197 1 gusting 2 12.2
2017-Feb-21 21:49 185 1 gusting 4 12.2
2017-Feb-21 21:44 186 1 gusting 4 12.2
2017-Feb-21 21:39 211 1 gusting 2 12.2
2017-Feb-21 21:34 253 1 gusting 2 12.2
2017-Feb-21 21:29 259 1 gusting 4 12.2
2017-Feb-21 21:24 243 1 gusting 2 12.2
2017-Feb-21 21:19 242 1 gusting 4 12.2
2017-Feb-21 21:14 241 1 gusting 2 12.2
2017-Feb-21 21:09 242 1 gusting 4 12.2
2017-Feb-21 21:04 285 1 gusting 4 12.2
2017-Feb-21 20:59 270 1 gusting 2 12.2
2017-Feb-21 20:54 251 1 gusting 1 12.8
2017-Feb-21 20:49 251 1 gusting 2 12.8
2017-Feb-21 20:44 251 1 gusting 1 12.8
2017-Feb-21 20:39 254 1 gusting 4 12.8
2017-Feb-21 20:34 251 1 gusting 1 12.8
2017-Feb-21 20:29 251 1 gusting 2 12.8
2017-Feb-21 20:24 255 0 gusting 2 12.8
2017-Feb-21 20:19 257 1 gusting 2 12.8
2017-Feb-21 20:14 292 1 gusting 1 12.8
2017-Feb-21 20:09 293 1 gusting 1 12.8
2017-Feb-21 20:04 298 1 gusting 4 12.8
2017-Feb-21 19:59 326 1 gusting 2 12.8
2017-Feb-21 19:54 307 0 gusting 2 12.8
2017-Feb-21 19:49 300 0 gusting 1 12.8
2017-Feb-21 19:44 288 12.8
2017-Feb-21 19:39 348 0 gusting 2 12.8
2017-Feb-21 19:34 356 1 gusting 1 13.3
2017-Feb-21 19:29 356 1 gusting 1 13.3
2017-Feb-21 19:24 357 1 gusting 1 13.3
2017-Feb-21 19:19 13.3
2017-Feb-21 19:14 003 1 gusting 4 13.3
2017-Feb-21 19:09 333 1 gusting 4 13.3
2017-Feb-21 19:04 329 1 gusting 1 13.3
2017-Feb-21 18:59 328 1 gusting 2 13.3
2017-Feb-21 18:54 328 1 gusting 4 13.3
2017-Feb-21 18:49 055 1 gusting 2 13.3
2017-Feb-21 18:44 340 1 gusting 4 13.3
2017-Feb-21 18:39 350 1 gusting 4 13.3
2017-Feb-21 18:34 340 1 gusting 4 13.3
2017-Feb-21 18:29 345 1 gusting 4 13.9
2017-Feb-21 18:24 013 1 gusting 4 13.9
2017-Feb-21 18:19 008 1 gusting 5 13.9
2017-Feb-21 18:14 020 1 gusting 4 13.9
2017-Feb-21 18:09 007 3 gusting 5 13.9
2017-Feb-21 17:59 034 4 gusting 5 14.4
2017-Feb-21 17:54 043 5 gusting 6 14.4
2017-Feb-21 17:49 045 5 gusting 7 14.4
2017-Feb-21 17:44 032 6 gusting 10 14.4
2017-Feb-21 17:39 041 6 gusting 8 14.4
2017-Feb-21 17:34 045 6 gusting 10 14.4
2017-Feb-21 17:29 047 6 gusting 10 14.4
2017-Feb-21 17:24 051 6 gusting 8 15.0
2017-Feb-21 17:19 058 6 gusting 11 15.0
2017-Feb-21 17:14 038 6 gusting 11 15.0
2017-Feb-21 17:09 043 6 gusting 13 15.0
2017-Feb-21 17:04 045 6 gusting 10 15.0
2017-Feb-21 16:59 046 7 gusting 13 15.6
2017-Feb-21 16:54 041 7 gusting 12 15.6
2017-Feb-21 16:49 030 8 gusting 12 15.6
2017-Feb-21 16:44 034 8 gusting 14 15.6
2017-Feb-21 16:39 042 7 gusting 14 15.6
2017-Feb-21 16:34 039 6 gusting 13 15.6
2017-Feb-21 16:29 042 8 gusting 12 15.6
2017-Feb-21 16:09 047 7 gusting 13 16.1
2017-Feb-21 16:04 028 7 gusting 14 16.1
2017-Feb-21 15:59 040 7 gusting 12 16.1
2017-Feb-21 15:54 052 6 gusting 13 16.1
2017-Feb-21 15:49 049 8 gusting 13 16.1
2017-Feb-21 15:44 047 10 gusting 13 16.1
2017-Feb-21 15:39 048 9 gusting 15 16.1
2017-Feb-21 15:34 047 8 gusting 15 16.1
2017-Feb-21 15:29 053 8 gusting 15 16.7
2017-Feb-21 15:19 030 9 gusting 14 16.7
2017-Feb-21 15:14 030 10 gusting 15 16.7
2017-Feb-21 15:09 028 8 gusting 15 16.7
2017-Feb-21 15:04 048 8 gusting 15 16.7
2017-Feb-21 14:59 023 8 gusting 12 16.7
2017-Feb-21 14:54 033 8 gusting 18 16.7
2017-Feb-21 14:49 033 8 gusting 18 16.7
2017-Feb-21 14:44 047 7 gusting 14 16.7
2017-Feb-21 14:39 036 8 gusting 14 16.7
2017-Feb-21 14:34 048 8 gusting 13 16.7
2017-Feb-21 14:29 044 9 gusting 13 16.7
2017-Feb-21 14:24 043 10 gusting 13 16.7
2017-Feb-21 14:19 031 10 gusting 17 16.7
2017-Feb-21 14:14 045 10 gusting 15 16.7
2017-Feb-21 14:09 045 10 gusting 15 16.7
2017-Feb-21 14:04 044 11 gusting 17 16.7
2017-Feb-21 13:59 027 11 gusting 19 16.7
2017-Feb-21 13:54 033 11 gusting 18 16.7
2017-Feb-21 13:49 033 10 gusting 18 16.7
2017-Feb-21 13:44 042 10 gusting 19 16.7
2017-Feb-21 13:39 036 10 gusting 19 16.7
2017-Feb-21 13:34 064 10 gusting 19 16.7
2017-Feb-21 13:29 051 9 gusting 18 16.7
2017-Feb-21 13:24 038 8 gusting 19 16.7
2017-Feb-21 13:19 046 9 gusting 18 16.7
2017-Feb-21 13:14 026 10 gusting 13 16.7
2017-Feb-21 13:09 046 10 gusting 13 16.7
2017-Feb-21 13:04 034 10 gusting 19 16.7